Location: Spring Creek
(38.2870°N, 100.2160°W)
Time: 21:42:06
(UTC+00:00)

Cosmos 1943 - Pass Details

Date: 08 May 2021
Orbit: 833 x 850 km, 71.0° (Epoch: 20 June)

Event Time Altitude Azimuth Distance (km) Brightness Sun altitude
Rises 02:29:08 0° 335° (NNW) 3,396 7.4 -9.7°
Reaches altitude 10° 02:31:35 10° 333° (NNW) 2,460 6.6 -10.1°
Maximum altitude 02:37:11 70° 251° (WSW) 894 3.5 -11.1°
Drops below altitude 10° 02:42:47 10° 168° (SSE) 2,457 5.2 -12.0°
Enters shadow 02:43:44 - 167° (SSE) 2,813 5.5 -12.1°
